Rutherfordton, NC

8:26 PM EDT on April 23, 2018 (GMT -0400)
Rutherford County-Marchman

Weather History for KFQD - May, 2014

Change the Weather History Date:

Sunday, May 18, 2014

  Actual Average (KAVL) Record (KAVL)
Temperature  
Mean Temperature 56 °F -  
Max Temperature 62 °F 77 °F 90 °F (1996)
Min Temperature 49 °F 50 °F 30 °F (1973)
Degree Days  
Heating Degree Days 10    
Growing Degree Days 6 (Base 50)    
Moisture  
Dew Point 49 °F    
Average Humidity 80    
Maximum Humidity 97    
Minimum Humidity 60    
Precipitation  
Precipitation 0.03 in - - ()
Sea Level Pressure  
Sea Level Pressure 30.23 in    
Wind  
Wind Speed 2 mph (SW)    
Max Wind Speed 9 mph    
Max Gust Speed 17 mph    
Visibility 10 miles    
Events Rain    
Averages and records for this station are not official NWS values.
T = Trace of Precipitation, MM = Missing Value Source: NWS Daily Summary

Daily Weather History Graph

Daily Weather History Graph

Search for Another Location

Airport or City:

Astronomy

May. 18, 2014 Rise Set
Actual Time 6:21 AM EDT 8:27 PM EDT
Civil Twilight 5:52 AM EDT 8:56 PM EDT
Nautical Twilight 5:17 AM EDT 9:31 PM EDT
Astronomical Twilight 4:40 AM EDT 10:08 PM EDT
Moon No Moon Rise 10:06 AM EDT (5/18)
Length of Visible Light 15h 03m
Length of Day
14h 06m
Waning Gibbous, 81% of the Moon is Illuminated
May 18
Waning Gibbous
May 21
Last Quarter
May 28
New
Jun 5
First Quarter
Jun 13
Full

Hourly Weather History & Observations

Time (EDT) Temp. Dew Point Humidity Pressure Visibility Wind Dir Wind Speed Gust Speed Precip Events Conditions
12:15 AM 55.2 °F 48.9 °F 79% 30.21 in 10.0 mi North 3.5 mph - N/A   Overcast
12:35 AM 52.9 °F 50.2 °F 91% 30.21 in 10.0 mi Calm Calm - N/A   Overcast
12:55 AM 53.1 °F 50.0 °F 89% 30.22 in 10.0 mi Calm Calm - N/A   Overcast
1:15 AM 52.2 °F 50.0 °F 92% 30.22 in 10.0 mi Calm Calm - N/A   Mostly Cloudy
1:35 AM 52.7 °F 48.7 °F 86% 30.22 in 10.0 mi Calm Calm - N/A   Scattered Clouds
1:55 AM 51.6 °F 46.6 °F 83% 30.21 in 10.0 mi NNE 4.6 mph - N/A   Clear
2:15 AM 50.9 °F 46.4 °F 85% 30.21 in 10.0 mi Calm Calm - N/A   Clear
2:35 AM 49.3 °F 47.3 °F 93% 30.21 in 10.0 mi Calm Calm - N/A   Clear
2:55 AM 49.3 °F 47.7 °F 94% 30.19 in 10.0 mi Calm Calm - N/A   Mostly Cloudy
3:15 AM 50.9 °F 46.2 °F 84% 30.19 in 10.0 mi Calm Calm - N/A   Scattered Clouds
3:35 AM 50.2 °F 46.4 °F 87% 30.19 in 10.0 mi North 3.5 mph - N/A   Clear
3:55 AM 50.9 °F 45.9 °F 83% 30.19 in 10.0 mi North 3.5 mph - N/A   Scattered Clouds
4:15 AM 50.5 °F 46.2 °F 85% 30.21 in 10.0 mi NW 3.5 mph - N/A   Mostly Cloudy
4:35 AM 50.9 °F 46.4 °F 85% 30.21 in 10.0 mi NW 4.6 mph - N/A   Mostly Cloudy
4:55 AM 51.1 °F 45.9 °F 82% 30.21 in 10.0 mi NW 3.5 mph - N/A   Mostly Cloudy
5:15 AM 51.8 °F 45.9 °F 80% 30.21 in 10.0 mi Calm Calm - N/A   Overcast
5:35 AM 51.4 °F 46.2 °F 82% 30.23 in 10.0 mi Calm Calm - N/A   Light Drizzle
5:55 AM 51.1 °F 47.5 °F 87% 30.23 in 10.0 mi Calm Calm - N/A Rain Light Rain
6:15 AM 50.0 °F 48.2 °F 94% 30.22 in 10.0 mi Calm Calm - N/A Rain Rain
6:35 AM 50.5 °F 47.8 °F 90% 30.24 in 10.0 mi Calm Calm - N/A   Overcast
6:55 AM 50.0 °F 48.6 °F 95% 30.25 in 10.0 mi East 4.6 mph - 0.01 in   Drizzle
7:15 AM 50.5 °F 48.7 °F 94% 30.24 in 10.0 mi Calm Calm - N/A Rain Light Rain
7:35 AM 50.7 °F 49.3 °F 95% 30.25 in 10.0 mi South 5.8 mph - N/A   Light Drizzle
7:55 AM 50.9 °F 49.5 °F 95% 30.26 in 10.0 mi Calm Calm - N/A Rain Light Rain
8:15 AM 51.1 °F 49.8 °F 95% 30.26 in 10.0 mi NW 3.5 mph - N/A Rain Rain
8:35 AM 51.4 °F 50.7 °F 97% 30.26 in 7.0 mi WNW 4.6 mph - N/A Rain Light Rain
8:55 AM 51.8 °F 50.4 °F 95% 30.28 in 10.0 mi NNW 5.8 mph - 0.01 in   Light Drizzle
9:15 AM 51.6 °F 50.5 °F 96% 30.27 in 7.0 mi South 5.8 mph - N/A Rain Rain
9:35 AM 52.5 °F 51.3 °F 95% 30.26 in 10.0 mi SE 4.6 mph - N/A Rain Light Rain
9:55 AM 53.1 °F 51.1 °F 93% 30.26 in 10.0 mi Calm Calm - N/A   Overcast
10:15 AM 53.2 °F 51.4 °F 94% 30.23 in 10.0 mi South 8.1 mph - N/A   Overcast
10:35 AM 54.0 °F 51.4 °F 91% 30.27 in 10.0 mi Calm Calm - N/A   Overcast
10:55 AM 54.7 °F 49.5 °F 83% 30.28 in 10.0 mi WNW 3.5 mph - N/A   Overcast
11:15 AM 55.2 °F 49.3 °F 80% 30.27 in 10.0 mi Calm Calm - N/A   Overcast
11:35 AM 56.5 °F 49.8 °F 78% 30.28 in 10.0 mi Calm Calm - N/A   Overcast
11:55 AM 57.4 °F 47.8 °F 70% 30.28 in 10.0 mi Calm Calm - N/A   Overcast
12:15 PM 57.4 °F 47.8 °F 70% 30.28 in 10.0 mi Calm Calm - N/A   Overcast
12:35 PM 58.5 °F 48.9 °F 71% 30.27 in 10.0 mi Calm Calm - N/A   Overcast
12:55 PM 57.7 °F 47.7 °F 69% 30.26 in 10.0 mi Calm Calm - N/A   Mostly Cloudy
1:15 PM 59.0 °F 47.1 °F 65% 30.26 in 10.0 mi Calm Calm - N/A   Mostly Cloudy
1:35 PM 60.8 °F 48.0 °F 63% 30.26 in 10.0 mi Calm Calm - N/A   Overcast
1:55 PM 59.7 °F 47.8 °F 65% 30.24 in 10.0 mi SE 3.5 mph - N/A   Overcast
2:15 PM 58.8 °F 47.1 °F 65% 30.25 in 10.0 mi Calm Calm - N/A   Overcast
2:35 PM 59.2 °F 47.1 °F 64% 30.24 in 10.0 mi Calm Calm - 0.01 in   Overcast
2:55 PM 59.7 °F 47.8 °F 65% 30.24 in 10.0 mi Calm Calm - 0.01 in   Overcast
3:15 PM 60.4 °F 48.4 °F 64% 30.23 in 10.0 mi Calm Calm - N/A   Overcast
3:35 PM 61.5 °F 47.8 °F 61% 30.23 in 10.0 mi Calm Calm - N/A   Overcast
3:55 PM 61.0 °F 47.5 °F 61% 30.22 in 10.0 mi Calm Calm - N/A   Overcast
4:15 PM 61.5 °F 48.6 °F 62% 30.22 in 10.0 mi Calm Calm - N/A   Scattered Clouds
4:35 PM 62.1 °F 48.6 °F 61% 30.21 in 10.0 mi SW 3.5 mph - N/A   Scattered Clouds
4:55 PM 61.9 °F 49.1 °F 63% 30.21 in 10.0 mi Calm Calm - N/A   Mostly Cloudy
5:15 PM 62.8 °F 49.1 °F 61% 30.21 in 10.0 mi SSW 9.2 mph 17.3 mph N/A   Mostly Cloudy
5:35 PM 62.4 °F 48.7 °F 61% 30.19 in 10.0 mi South 4.6 mph - N/A   Scattered Clouds
5:55 PM 62.6 °F 48.6 °F 60% 30.19 in 10.0 mi South 3.5 mph - N/A   Scattered Clouds
6:15 PM 61.5 °F 47.8 °F 61% 30.19 in 10.0 mi WSW 4.6 mph - N/A   Scattered Clouds
6:35 PM 61.9 °F 48.7 °F 62% 30.19 in 10.0 mi South 3.5 mph - N/A   Scattered Clouds
6:55 PM 61.9 °F 49.1 °F 63% 30.19 in 10.0 mi SSW 4.6 mph - N/A   Scattered Clouds
7:15 PM 61.3 °F 49.3 °F 65% 30.19 in 10.0 mi South 4.6 mph - N/A   Scattered Clouds
7:35 PM 60.4 °F 49.6 °F 68% 30.20 in 10.0 mi Calm Calm - N/A   Clear
7:55 PM 59.2 °F 50.2 °F 72% 30.20 in 10.0 mi SSW 3.5 mph - N/A   Clear
8:15 PM 57.9 °F 50.5 °F 76% 30.21 in 10.0 mi Calm Calm - N/A   Clear
8:35 PM 57.6 °F 50.7 °F 78% 30.21 in 10.0 mi SW 3.5 mph - N/A   Clear
8:55 PM 56.7 °F 50.5 °F 80% 30.22 in 10.0 mi SSW 3.5 mph - N/A   Scattered Clouds
9:15 PM 56.3 °F 50.5 °F 81% 30.22 in 10.0 mi WSW 3.5 mph - N/A   Scattered Clouds
9:35 PM 55.8 °F 50.4 °F 82% 30.22 in 10.0 mi Calm Calm - N/A   Scattered Clouds
9:55 PM 54.5 °F 50.5 °F 86% 30.23 in 10.0 mi Calm Calm - N/A   Mostly Cloudy
10:15 PM 54.9 °F 50.7 °F 86% 30.23 in 10.0 mi Calm Calm - N/A   Mostly Cloudy
10:35 PM 53.2 °F 50.4 °F 90% 30.24 in 10.0 mi Calm Calm - N/A   Scattered Clouds
10:55 PM 52.0 °F 50.2 °F 94% 30.24 in 10.0 mi Calm Calm - N/A   Clear
11:15 PM 52.2 °F 50.2 °F 93% 30.24 in 10.0 mi Calm Calm - N/A   Clear
11:35 PM 51.3 °F 49.5 °F 94% 30.24 in 10.0 mi Calm Calm - N/A   Clear
11:55 PM 49.6 °F 48.9 °F 97% 30.24 in 7.0 mi Calm Calm - N/A   Clear